Regional Weather Roundup
Issued by NWS

Home | Current Version | Previous Version | Text Only | Print | Product List | Glossary On
Versions: 1 2 3 4 5 6 7 8 9 10 11 12 13 14 15 16 17 18 19 20 21 22 23 24 25 26 27 28 29 30 31 32 33 34 35 36 37 38 39 40 41 42 43 44 45 46 47 48 49 50
000
ASUS44 KEWX 130311
RWRTX
SOUTH TEXAS REGIONAL WEATHER ROUNDUP
NATIONAL WEATHER SERVICE AUSTIN/SAN ANTONIO TX
900 PM CST FRI FEB 12 2016

NOTE: "FAIR" INDICATED FEW OR NO CLOUDS BELOW 12,000 FEET WITH NO
SIGNIFICANT WEATHER AND/OR OBSTRUCTIONS TO VISIBILITY.

* - THESE STATIONS ARE NOT NWS OR FAA STATIONS...AND ARE NOT SUBJECT
    TO NWS AND FAA QUALITY CONTROL.

TXZ171-172-183>190-130400-
TEXAS HILL COUNTRY AND EDWARDS PLATEAU

CITY           SKY/WX    TMP DP  RH WIND       PRES   REMARKS
JUNCTION       CLEAR     63  34  33 NE10      30.29R
*LLANO         CLEAR     59  36  41 CALM      30.33R
BURNET         CLEAR     60  35  39 N8        30.32R
*HORSESHOE BAY CLEAR     57  39  50 CALM      30.30R
*KERRVILLE     CLEAR     56  40  55 CALM      30.28R
*FREDERICKSBRG CLEAR     60  36  40 CALM      30.29R
*ROCKSPRINGS   CLEAR     63  32  31 NE3       30.29R
*BOERNE STAGE  CLEAR     54  41  62 CALM      30.28R
*CASTROVILLE   CLEAR     61  47  58 E6        30.26R
HONDO          CLEAR     65  47  52 E7        30.25R
*UVALDE        CLEAR     63  42  46 E8        30.23R
DEL RIO        CLEAR     69  32  25 E8        30.19R
LAUGHLIN AFB   CLEAR     62  34  34 SE8       30.19R
CARRIZO SPRGS  CLEAR     66  37  34 E6        30.19R
*EAGLE PASS    CLEAR     66  34  30 E8        30.19S
$$

TXZ173-191>194-202-209-217>225-228-130400-
CENTRAL AND SOUTH CENTRAL TEXAS

CITY           SKY/WX    TMP DP  RH WIND       PRES   REMARKS
GEORGETOWN     CLEAR     61  39  44 N7        30.29R
AUSTIN/BERGSTM CLEAR     56  44  64 N12       30.27R
AUSTIN/MABRY   CLEAR     66  42  41 N6        30.28R
*AUSTIN/EXEC   PTCLDY    61  41  48 N12       30.28R
*LAGO VISTA    CLEAR     62  39  43 NE12G17   30.29R
SAN MARCOS     CLEAR     61  43  51 NE10      30.27R
NEW BRAUNFELS  CLEAR     63  43  48 NE10      30.24R
RANDOLPH AFB   CLEAR     62  41  46 NE3       30.25R
PT SAN ANTONIO CLEAR     66  46  48 NE7       30.23R
SAN ANTONIO    CLEAR     66  42  41 E6        30.25R
STINSON FIELD  CLEAR     69  44  40 NE6       30.22R
*PLEASANTON    NOT AVBL
*LA GRANGE     CLEAR     60  49  68 CALM      30.23R
*GIDDINGS      CLEAR     62  44  52 NE5       30.29R
*GONZALES      CLEAR     65  53  65 N6        30.24R
$$

TXZ163>164-176>182-195>201-210>213-226-227-235-130400-
SOUTHEAST TEXAS

CITY           SKY/WX    TMP DP  RH WIND       PRES   REMARKS
COLLEGE STN    CLEAR     67  48  50 NE9       30.27R
*BRYAN         CLEAR     61  48  62 NE6       30.29R
*CALDWELL      CLEAR     63  46  55 CALM      30.30R
*CROCKETT      CLEAR     54  41  62 CALM      30.32R
*BRENHAM       CLEAR     61  53  73 CALM      30.27R
HUNTSVILLE     CLEAR     62  49  62 E3        30.28R
CONROE         CLEAR     58  53  84 NE3       30.27R
HOUSTON BUSH   CLEAR     61  54  77 NE5       30.26R
HOUSTON HOBBY  CLEAR     66  57  72 S3        30.25R
*HOUSTON SW AP CLEAR     63  56  80 SW5       30.26R
PEARLAND       CLEAR     66  56  70 CALM      30.27R
HOUSTON HOOKS  CLEAR     66  54  65 NE5       30.25R
ELLINGTON FLD  CLEAR     68  54  60 S5        30.27R
SUGAR LAND     CLEAR     64  56  75 SW6       30.25R
*HOUSTON EXEC  PTCLDY    61  57  88 CALM      30.27R
*CLEVELAND MUN CLEAR     59  55  87 CALM      30.27R
*WHARTON       CLEAR     59  53  81 CALM      30.27R
*COLUMBUS      FAIR      61  56  84 CALM      30.25R
*EAGLE LAKE    CLEAR     61  56  84 S6        30.25R
$$

TXZ214>216-236>238-130400-
THE UPPER TEXAS COAST

CITY           SKY/WX    TMP DP  RH WIND       PRES   REMARKS
*ORANGE        CLEAR     61  56  82 CALM      30.29R
PORT ARTHUR    CLEAR     58  57  97 CALM      30.26R
GALVESTON      CLEAR     61  60  97 S6        30.27R
ANGLETON       CLEAR     60  58  92 SW5       30.25R
*BAY CITY      CLEAR     60  60 100 SE3       30.26R
PALACIOS       CLEAR     62  61  96 SE9       30.25R
$$

TXZ229>234-239>247-130400-
TEXAS COASTAL BEND AND RIO GRANDE PLAINS

CITY           SKY/WX    TMP DP  RH WIND       PRES   REMARKS
VICTORIA       CLEAR     57  56  96 SE6       30.25R
*BEEVILLE      CLEAR     61  58  91 SE6       30.23R
ROCKPORT       PTCLDY    63  59  87 SE7       30.24R
*PORT ARANSAS  CLEAR     62  61  97 SE8       30.24R
*PORT LAVACA   CLEAR     59  57  94 SE5       30.25R
*INGLESIDE     PTCLDY    57  55  94 SE6       30.24R
CORPUS CHRISTI PTCLDY    63  56  78 SE12      30.24R
CORPUS NAS     CLEAR     63  61  93 SE12      30.24R
*ROBSTOWN      PTCLDY    63  57  81 SE8       30.25R
ALICE          PTCLDY    61  55  81 SE7       30.23R
KINGSVILLE NAS PTCLDY    63  60  90 SE8       30.23R
COTULLA        CLEAR     69  42  37 E8        30.21R
*FAITH RANCH   PTCLDY    68  37  32 E8        30.20R
LAREDO         CLEAR     69  41  36 E7        30.19R
$$

TXZ248>255-130400-
DEEP SOUTH TEXAS

CITY           SKY/WX    TMP DP  RH WIND       PRES   REMARKS
BROWNSVILLE    PTCLDY    60  59  96 NE3       30.25R
PORT ISABEL    PTCLDY    61  59  93 SE3       30.24R
*SOUTH PADRE     N/A     64  63  94 E5        30.24R
HARLINGEN      PTCLDY    61  55  81 SE9       30.23R
*HEBBRONVILLE  NOT AVBL
MCALLEN        PTCLDY    67  58  72 SE10      30.23R
*WESLACO       PTCLDY    65  57  75 SE7       30.23R
FALFURRIAS     PTCLDY    66  58  76 SE6       30.22R
EDINBURG       PTCLDY    68  57  68 S9        30.23R
*ZAPATA        PTCLDY    71  45  39 SE7       30.18R
$$

TXZ213>215-236>238-242>244-246-247-251-254-255-130400-
CMAN STATIONS

STATION/POSITION TIME  TEMP    WIND        PRES    WAVE
                       AIR SEA DIR/SP/G            HT/PER
                 (UTC) (F)     (DEG/KT/KT) (MB)    (FT/S)
SABINE PASS      0200   62 59              1025.6
SEA RIM ST PARK  0300   62     240/  4/  5 1025.4
NORTH JETTY/GLS  0200   63 61                N/A
EAGLE POINT      0200   65 58              1024.1
MORGANS POINT    0200   64 55              1023.9
MISSION/ARANSAS  0200   65                 1024.0
PORT O`CONNOR    0200          110/  6/  7   N/A
PORT ARANSAS     0300   64 65  130/ 11/ 12 1024.8
MALAQUITE BEACH  0200   65 65              1023.4
BAFFIN BAY       0200   65 67              1023.2
PORT ISABEL      0200   65 63              1023.3
$$

GMZ080-GMZ150>470-130400-
OFFSHORE BUOY REPORTS

STATION/POSITION TIME  TEMP    WIND        PRES    WAVE
                       AIR SEA DIR/SP/G            HT/PER
                 (UTC) (F)     (DEG/KT/KT) (MB)    (FT/S)
20 E GALVESTON   0250   62 61  200/  6/  6 1024.8    2/ 6
90 E PT ARANSAS  0250   68 67  150/  4/  4 1025.0    2/ 6
35 NE PT MANSFLD 0250   67 65  160/ 10/ 10 1024.0    2/ 6
200 E PT ISABEL  0250                        N/A     2/ 5
$$



USA.gov is the U.S. government's official web portal to all federal, state and local government web resources and services.